owner,sensor,date,latitude,longitude,vertical_datum,mass_concentration_of_oxygen_in_sea_water,qcFlag 
SCCF RECON,ioos:station:SCCF:18:1,2016-04-01T00:00:00Z,26.6955,-81.8138,1.92,5.35,1111122 
SCCF RECON,ioos:station:SCCF:18:1,2016-04-01T01:00:00Z,26.6955,-81.8138,1.96,5.65,1111122 
SCCF RECON,ioos:station:SCCF:18:1,2016-04-01T02:00:00Z,26.6955,-81.8138,1.96,5.59,1111122 
SCCF RECON,ioos:station:SCCF:18:1,2016-04-01T03:00:00Z,26.6955,-81.8138,2.01,6.09,1111122 
SCCF RECON,ioos:station:SCCF:18:1,2016-04-01T04:00:00Z,26.6955,-81.8138,2.038,6.06,1111122 
SCCF RECON,ioos:station:SCCF:18:1,2016-04-01T05:00:00Z,26.6955,-81.8138,2.04,5.94,1111122 
SCCF RECON,ioos:station:SCCF:18:1,2016-04-01T06:00:00Z,26.6955,-81.8138,2.03,5.74,1111122 
SCCF RECON,ioos:station:SCCF:18:1,2016-04-01T07:00:00Z,26.6955,-81.8138,2.082,5.73,1111122 
SCCF RECON,ioos:station:SCCF:18:1,2016-04-01T08:00:00Z,26.6955,-81.8138,2.051,5.6,1111122 
SCCF RECON,ioos:station:SCCF:18:1,2016-04-01T09:00:00Z,26.6955,-81.8138,2.053,5.61,1111122 
SCCF RECON,ioos:station:SCCF:18:1,2016-04-01T10:00:00Z,26.6955,-81.8138,2.049,5.54,1111122 
SCCF RECON,ioos:station:SCCF:18:1,2016-04-01T11:00:00Z,26.6955,-81.8138,2.01,5.61,1111122 
SCCF RECON,ioos:station:SCCF:18:1,2016-04-01T12:00:00Z,26.6955,-81.8138,1.91,5.59,1111122 
SCCF RECON,ioos:station:SCCF:18:1,2016-04-01T13:00:00Z,26.6955,-81.8138,1.95,5.41,1111122 
SCCF RECON,ioos:station:SCCF:18:1,2016-04-01T14:00:00Z,26.6955,-81.8138,1.95,5.45,1111122 
SCCF RECON,ioos:station:SCCF:18:1,2016-04-01T15:00:00Z,26.6955,-81.8138,1.96,5.47,1111122 
SCCF RECON,ioos:station:SCCF:18:1,2016-04-01T16:00:00Z,26.6955,-81.8138,1.95,5.35,1111122 
SCCF RECON,ioos:station:SCCF:18:1,2016-04-01T17:00:00Z,26.6955,-81.8138,1.955,5.35,1111122 
SCCF RECON,ioos:station:SCCF:18:1,2016-04-01T18:00:00Z,26.6955,-81.8138,1.98,5.55,1111122 
SCCF RECON,ioos:station:SCCF:18:1,2016-04-01T19:00:00Z,26.6955,-81.8138,2.031,5.84,1111122 
SCCF RECON,ioos:station:SCCF:18:1,2016-04-01T20:00:00Z,26.6955,-81.8138,2.03,5.94,1111122 
SCCF RECON,ioos:station:SCCF:18:1,2016-04-01T21:00:00Z,26.6955,-81.8138,2.075,5.81,1111122 
SCCF RECON,ioos:station:SCCF:18:1,2016-04-01T22:00:00Z,26.6955,-81.8138,2.02,5.4,1111122 
SCCF RECON,ioos:station:SCCF:18:1,2016-04-01T23:00:00Z,26.6955,-81.8138,1.982,5.32,1111122 
SCCF RECON,ioos:station:SCCF:18:1,2016-04-02T00:00:00Z,26.6955,-81.8138,1.95,5.29,1111122 
SCCF RECON,ioos:station:SCCF:18:1,2016-04-02T01:00:00Z,26.6955,-81.8138,1.97,5.31,1111122 
SCCF RECON,ioos:station:SCCF:18:1,2016-04-02T02:00:00Z,26.6955,-81.8138,1.98,5.35,1111122 
SCCF RECON,ioos:station:SCCF:18:1,2016-04-02T03:00:00Z,26.6955,-81.8138,2.02,6.03,1111122 
SCCF RECON,ioos:station:SCCF:18:1,2016-04-02T04:00:00Z,26.6955,-81.8138,2.013,5.6,1111122 
SCCF RECON,ioos:station:SCCF:18:1,2016-04-02T05:00:00Z,26.6955,-81.8138,2.09,5.8,1111122 
SCCF RECON,ioos:station:SCCF:18:1,2016-04-02T06:00:00Z,26.6955,-81.8138,2.12,6.04,1111122 
SCCF RECON,ioos:station:SCCF:18:1,2016-04-02T07:00:00Z,26.6955,-81.8138,2.12,6.05,1111122 
SCCF RECON,ioos:station:SCCF:18:1,2016-04-02T08:00:00Z,26.6955,-81.8138,2.13,5.98,1111122 
SCCF RECON,ioos:station:SCCF:18:1,2016-04-02T09:00:00Z,26.6955,-81.8138,2.07,5.79,1111122 
SCCF RECON,ioos:station:SCCF:18:1,2016-04-02T10:00:00Z,26.6955,-81.8138,2.018,5.77,1111122 
SCCF RECON,ioos:station:SCCF:18:1,2016-04-02T11:00:00Z,26.6955,-81.8138,2.01,5.6,1111122 
SCCF RECON,ioos:station:SCCF:18:1,2016-04-02T12:00:00Z,26.6955,-81.8138,1.91,5.5,1111122 
SCCF RECON,ioos:station:SCCF:18:1,2016-04-02T13:00:00Z,26.6955,-81.8138,1.95,5.33,1111122 
SCCF RECON,ioos:station:SCCF:18:1,2016-04-02T14:00:00Z,26.6955,-81.8138,1.975,5.39,1111122 
SCCF RECON,ioos:station:SCCF:18:1,2016-04-02T15:00:00Z,26.6955,-81.8138,1.98,5.49,1111122 
SCCF RECON,ioos:station:SCCF:18:1,2016-04-02T16:00:00Z,26.6955,-81.8138,1.941,5.35,1111122 
SCCF RECON,ioos:station:SCCF:18:1,2016-04-02T17:00:00Z,26.6955,-81.8138,1.96,5.7,1111122 
SCCF RECON,ioos:station:SCCF:18:1,2016-04-02T18:00:00Z,26.6955,-81.8138,1.98,5.52,1111122 
SCCF RECON,ioos:station:SCCF:18:1,2016-04-02T19:00:00Z,26.6955,-81.8138,1.964,5.57,1111122 
SCCF RECON,ioos:station:SCCF:18:1,2016-04-02T20:00:00Z,26.6955,-81.8138,2.017,5.82,1111122 
SCCF RECON,ioos:station:SCCF:18:1,2016-04-02T21:00:00Z,26.6955,-81.8138,2.04,5.99,1111122 
SCCF RECON,ioos:station:SCCF:18:1,2016-04-02T22:00:00Z,26.6955,-81.8138,2.06,6.0,1111122 
SCCF RECON,ioos:station:SCCF:18:1,2016-04-02T23:00:00Z,26.6955,-81.8138,2.07,5.97,1111122 
SCCF RECON,ioos:station:SCCF:18:1,2016-04-03T00:00:00Z,26.6955,-81.8138,2.046,5.32,1111122 
SCCF RECON,ioos:station:SCCF:18:1,2016-04-03T01:00:00Z,26.6955,-81.8138,1.99,5.34,1111122 
SCCF RECON,ioos:station:SCCF:18:1,2016-04-03T02:00:00Z,26.6955,-81.8138,2.01,5.62,1111122 
SCCF RECON,ioos:station:SCCF:18:1,2016-04-03T03:00:00Z,26.6955,-81.8138,2.01,5.75,1111122 
SCCF RECON,ioos:station:SCCF:18:1,2016-04-03T04:00:00Z,26.6955,-81.8138,2.0,5.4,1111122 
SCCF RECON,ioos:station:SCCF:18:1,2016-04-03T05:00:00Z,26.6955,-81.8138,2.02,5.75,1111122 
SCCF RECON,ioos:station:SCCF:18:1,2016-04-03T06:00:00Z,26.6955,-81.8138,2.04,5.72,1111122 
SCCF RECON,ioos:station:SCCF:18:1,2016-04-03T07:00:00Z,26.6955,-81.8138,2.01,5.62,1111122 
SCCF RECON,ioos:station:SCCF:18:1,2016-04-03T08:00:00Z,26.6955,-81.8138,2.05,5.6,1111122 
SCCF RECON,ioos:station:SCCF:18:1,2016-04-03T09:00:00Z,26.6955,-81.8138,2.03,5.85,1111122 
SCCF RECON,ioos:station:SCCF:18:1,2016-04-03T10:00:00Z,26.6955,-81.8138,2.0,5.68,1111122 
SCCF RECON,ioos:station:SCCF:18:1,2016-04-03T11:00:00Z,26.6955,-81.8138,1.965,5.47,1111122 
SCCF RECON,ioos:station:SCCF:18:1,2016-04-03T12:00:00Z,26.6955,-81.8138,1.953,5.57,1111122 
SCCF RECON,ioos:station:SCCF:18:1,2016-04-03T13:00:00Z,26.6955,-81.8138,1.94,5.55,1111122 
SCCF RECON,ioos:station:SCCF:18:1,2016-04-03T14:00:00Z,26.6955,-81.8138,1.891,5.69,1111122 
SCCF RECON,ioos:station:SCCF:18:1,2016-04-03T15:00:00Z,26.6955,-81.8138,1.86,5.68,1111122 
SCCF RECON,ioos:station:SCCF:18:1,2016-04-03T16:00:00Z,26.6955,-81.8138,1.87,5.85,1111122 
SCCF RECON,ioos:station:SCCF:18:1,2016-04-03T17:00:00Z,26.6955,-81.8138,1.87,5.91,1111122 
SCCF RECON,ioos:station:SCCF:18:1,2016-04-03T18:00:00Z,26.6955,-81.8138,1.87,6.09,1111122 
SCCF RECON,ioos:station:SCCF:18:1,2016-04-03T19:00:00Z,26.6955,-81.8138,1.88,6.03,1111122 
SCCF RECON,ioos:station:SCCF:18:1,2016-04-03T20:00:00Z,26.6955,-81.8138,1.889,6.31,1111122 
SCCF RECON,ioos:station:SCCF:18:1,2016-04-03T21:00:00Z,26.6955,-81.8138,1.91,6.53,1111122 
SCCF RECON,ioos:station:SCCF:18:1,2016-04-03T22:00:00Z,26.6955,-81.8138,1.89,6.34,1111122 
SCCF RECON,ioos:station:SCCF:18:1,2016-04-03T23:00:00Z,26.6955,-81.8138,1.9,6.63,1111122 
SCCF RECON,ioos:station:SCCF:18:1,2016-04-04T00:00:00Z,26.6955,-81.8138,1.836,5.89,1111122 
SCCF RECON,ioos:station:SCCF:18:1,2016-04-04T01:00:00Z,26.6955,-81.8138,1.77,5.81,1111122 
SCCF RECON,ioos:station:SCCF:18:1,2016-04-04T02:00:00Z,26.6955,-81.8138,1.8,6.04,1111122 
SCCF RECON,ioos:station:SCCF:18:1,2016-04-04T03:00:00Z,26.6955,-81.8138,1.802,6.11,1111122 
SCCF RECON,ioos:station:SCCF:18:1,2016-04-04T04:00:00Z,26.6955,-81.8138,1.79,6.02,1111122 
SCCF RECON,ioos:station:SCCF:18:1,2016-04-04T05:00:00Z,26.6955,-81.8138,1.8,5.91,1111122 
SCCF RECON,ioos:station:SCCF:18:1,2016-04-04T06:00:00Z,26.6955,-81.8138,1.8,6.0,1111122 
SCCF RECON,ioos:station:SCCF:18:1,2016-04-04T07:00:00Z,26.6955,-81.8138,1.81,5.91,1111122 
SCCF RECON,ioos:station:SCCF:18:1,2016-04-04T08:00:00Z,26.6955,-81.8138,1.81,5.84,1111122 
SCCF RECON,ioos:station:SCCF:18:1,2016-04-04T09:00:00Z,26.6955,-81.8138,1.82,6.04,1111122 
SCCF RECON,ioos:station:SCCF:18:1,2016-04-04T10:00:00Z,26.6955,-81.8138,1.81,5.91,1111122 
SCCF RECON,ioos:station:SCCF:18:1,2016-04-04T11:00:00Z,26.6955,-81.8138,1.82,5.85,1111122 
SCCF RECON,ioos:station:SCCF:18:1,2016-04-04T12:00:00Z,26.6955,-81.8138,1.81,5.68,1111122 
SCCF RECON,ioos:station:SCCF:18:1,2016-04-04T13:00:00Z,26.6955,-81.8138,1.81,5.64,1111122 
SCCF RECON,ioos:station:SCCF:18:1,2016-04-04T14:00:00Z,26.6955,-81.8138,1.79,5.59,1111122 
SCCF RECON,ioos:station:SCCF:18:1,2016-04-04T15:00:00Z,26.6955,-81.8138,1.77,5.68,1111122 
SCCF RECON,ioos:station:SCCF:18:1,2016-04-04T16:00:00Z,26.6955,-81.8138,1.76,5.68,1111122 
SCCF RECON,ioos:station:SCCF:18:1,2016-04-04T17:00:00Z,26.6955,-81.8138,1.78,5.73,1111122 
SCCF RECON,ioos:station:SCCF:18:1,2016-04-04T18:00:00Z,26.6955,-81.8138,1.79,5.75,1111122 
SCCF RECON,ioos:station:SCCF:18:1,2016-04-04T19:00:00Z,26.6955,-81.8138,1.81,5.93,1111122 
SCCF RECON,ioos:station:SCCF:18:1,2016-04-04T20:00:00Z,26.6955,-81.8138,1.82,5.91,1111122 
SCCF RECON,ioos:station:SCCF:18:1,2016-04-04T21:00:00Z,26.6955,-81.8138,1.83,5.74,1111122 
SCCF RECON,ioos:station:SCCF:18:1,2016-04-04T22:00:00Z,26.6955,-81.8138,1.84,5.76,1111122 
SCCF RECON,ioos:station:SCCF:18:1,2016-04-04T23:00:00Z,26.6955,-81.8138,1.83,5.46,1111122 
SCCF RECON,ioos:station:SCCF:18:1,2016-04-05T00:00:00Z,26.6955,-81.8138,1.79,5.57,1111122 
SCCF RECON,ioos:station:SCCF:18:1,2016-04-05T01:00:00Z,26.6955,-81.8138,1.81,6.15,1111122 
SCCF RECON,ioos:station:SCCF:18:1,2016-04-05T02:00:00Z,26.6955,-81.8138,1.83,5.99,1111122 
SCCF RECON,ioos:station:SCCF:18:1,2016-04-05T03:00:00Z,26.6955,-81.8138,1.798,5.77,1111122 
SCCF RECON,ioos:station:SCCF:18:1,2016-04-05T04:00:00Z,26.6955,-81.8138,1.782,5.7,1111122 
SCCF RECON,ioos:station:SCCF:18:1,2016-04-05T05:00:00Z,26.6955,-81.8138,1.79,5.61,1111122 
SCCF RECON,ioos:station:SCCF:18:1,2016-04-05T06:00:00Z,26.6955,-81.8138,1.8,5.71,1111122 
SCCF RECON,ioos:station:SCCF:18:1,2016-04-05T07:00:00Z,26.6955,-81.8138,1.808,5.55,1111122 
SCCF RECON,ioos:station:SCCF:18:1,2016-04-05T08:00:00Z,26.6955,-81.8138,1.819,5.62,1111122 
SCCF RECON,ioos:station:SCCF:18:1,2016-04-05T09:00:00Z,26.6955,-81.8138,1.821,5.8,1111122 
SCCF RECON,ioos:station:SCCF:18:1,2016-04-05T10:00:00Z,26.6955,-81.8138,1.84,5.95,1111122 
SCCF RECON,ioos:station:SCCF:18:1,2016-04-05T11:00:00Z,26.6955,-81.8138,1.83,5.84,1111122 
SCCF RECON,ioos:station:SCCF:18:1,2016-04-05T12:00:00Z,26.6955,-81.8138,1.84,5.77,1111122 
SCCF RECON,ioos:station:SCCF:18:1,2016-04-05T13:00:00Z,26.6955,-81.8138,1.85,5.62,1111122 
SCCF RECON,ioos:station:SCCF:18:1,2016-04-05T14:00:00Z,26.6955,-81.8138,1.838,5.74,1111122 
SCCF RECON,ioos:station:SCCF:18:1,2016-04-05T15:00:00Z,26.6955,-81.8138,1.84,5.6,1111122 
SCCF RECON,ioos:station:SCCF:18:1,2016-04-05T16:00:00Z,26.6955,-81.8138,1.81,5.48,1111122 
SCCF RECON,ioos:station:SCCF:18:1,2016-04-05T17:00:00Z,26.6955,-81.8138,1.84,5.71,1111122 
SCCF RECON,ioos:station:SCCF:18:1,2016-04-05T18:00:00Z,26.6955,-81.8138,1.86,6.0,1111122 
SCCF RECON,ioos:station:SCCF:18:1,2016-04-05T19:00:00Z,26.6955,-81.8138,1.88,6.17,1111122 
SCCF RECON,ioos:station:SCCF:18:1,2016-04-05T20:00:00Z,26.6955,-81.8138,1.9,6.27,1111122 
SCCF RECON,ioos:station:SCCF:18:1,2016-04-05T21:00:00Z,26.6955,-81.8138,1.93,6.39,1111122 
SCCF RECON,ioos:station:SCCF:18:1,2016-04-05T22:00:00Z,26.6955,-81.8138,1.93,6.34,1111122 
SCCF RECON,ioos:station:SCCF:18:1,2016-04-05T23:00:00Z,26.6955,-81.8138,1.9,5.7,1111122 
SCCF RECON,ioos:station:SCCF:18:1,2016-04-06T00:00:00Z,26.6955,-81.8138,1.86,5.87,1111122 
SCCF RECON,ioos:station:SCCF:18:1,2016-04-06T01:00:00Z,26.6955,-81.8138,1.846,5.86,1111122 
SCCF RECON,ioos:station:SCCF:18:1,2016-04-06T02:00:00Z,26.6955,-81.8138,1.842,5.91,1111122 
SCCF RECON,ioos:station:SCCF:18:1,2016-04-06T03:00:00Z,26.6955,-81.8138,1.86,5.91,1111122 
SCCF RECON,ioos:station:SCCF:18:1,2016-04-06T04:00:00Z,26.6955,-81.8138,1.83,5.74,1111122 
SCCF RECON,ioos:station:SCCF:18:1,2016-04-06T05:00:00Z,26.6955,-81.8138,1.83,5.88,1111122 
SCCF RECON,ioos:station:SCCF:18:1,2016-04-06T06:00:00Z,26.6955,-81.8138,1.832,5.8,1111122 
SCCF RECON,ioos:station:SCCF:18:1,2016-04-06T07:00:00Z,26.6955,-81.8138,1.84,5.77,1111122 
SCCF RECON,ioos:station:SCCF:18:1,2016-04-06T08:00:00Z,26.6955,-81.8138,1.84,5.76,1111122 
SCCF RECON,ioos:station:SCCF:18:1,2016-04-06T09:00:00Z,26.6955,-81.8138,1.858,5.75,1111122 
SCCF RECON,ioos:station:SCCF:18:1,2016-04-06T10:00:00Z,26.6955,-81.8138,1.856,6.03,1111122 
SCCF RECON,ioos:station:SCCF:18:1,2016-04-06T11:00:00Z,26.6955,-81.8138,1.86,5.83,1111122 
SCCF RECON,ioos:station:SCCF:18:1,2016-04-06T12:00:00Z,26.6955,-81.8138,1.89,5.42,1111122 
SCCF RECON,ioos:station:SCCF:18:1,2016-04-06T13:00:00Z,26.6955,-81.8138,1.88,5.54,1111122 
SCCF RECON,ioos:station:SCCF:18:1,2016-04-06T14:00:00Z,26.6955,-81.8138,1.859,5.62,1111122 
SCCF RECON,ioos:station:SCCF:18:1,2016-04-06T15:00:00Z,26.6955,-81.8138,1.84,5.73,1111122 
SCCF RECON,ioos:station:SCCF:18:1,2016-04-06T16:00:00Z,26.6955,-81.8138,1.85,5.96,1111122 
SCCF RECON,ioos:station:SCCF:18:1,2016-04-06T17:00:00Z,26.6955,-81.8138,1.85,5.85,1111122 
SCCF RECON,ioos:station:SCCF:18:1,2016-04-06T18:00:00Z,26.6955,-81.8138,1.86,6.46,1111122 
SCCF RECON,ioos:station:SCCF:18:1,2016-04-06T19:00:00Z,26.6955,-81.8138,1.87,6.04,1111122 
SCCF RECON,ioos:station:SCCF:18:1,2016-04-06T20:00:00Z,26.6955,-81.8138,1.9,6.34,1111122 
SCCF RECON,ioos:station:SCCF:18:1,2016-04-06T21:00:00Z,26.6955,-81.8138,1.933,6.37,1111122 
SCCF RECON,ioos:station:SCCF:18:1,2016-04-06T22:00:00Z,26.6955,-81.8138,1.937,6.26,1111122 
SCCF RECON,ioos:station:SCCF:18:1,2016-04-06T23:00:00Z,26.6955,-81.8138,1.94,6.08,1111122 
SCCF RECON,ioos:station:SCCF:18:1,2016-04-07T00:00:00Z,26.6955,-81.8138,1.96,5.96,1111122 
SCCF RECON,ioos:station:SCCF:18:1,2016-04-07T01:00:00Z,26.6955,-81.8138,1.92,6.35,1111122 
SCCF RECON,ioos:station:SCCF:18:1,2016-04-07T02:00:00Z,26.6955,-81.8138,1.9,5.85,1111122 
SCCF RECON,ioos:station:SCCF:18:1,2016-04-07T03:00:00Z,26.6955,-81.8138,1.886,5.78,1111122 
SCCF RECON,ioos:station:SCCF:18:1,2016-04-07T04:00:00Z,26.6955,-81.8138,1.87,5.89,1111122 
SCCF RECON,ioos:station:SCCF:18:1,2016-04-07T05:00:00Z,26.6955,-81.8138,1.858,5.72,1111122 
SCCF RECON,ioos:station:SCCF:18:1,2016-04-07T06:00:00Z,26.6955,-81.8138,1.84,5.92,1111122 
SCCF RECON,ioos:station:SCCF:18:1,2016-04-07T07:00:00Z,26.6955,-81.8138,1.85,5.75,1111122 
SCCF RECON,ioos:station:SCCF:18:1,2016-04-07T08:00:00Z,26.6955,-81.8138,1.86,5.54,1111122 
SCCF RECON,ioos:station:SCCF:18:1,2016-04-07T09:00:00Z,26.6955,-81.8138,1.87,5.56,1111122 
SCCF RECON,ioos:station:SCCF:18:1,2016-04-07T10:00:00Z,26.6955,-81.8138,1.88,5.57,1111122 
SCCF RECON,ioos:station:SCCF:18:1,2016-04-07T11:00:00Z,26.6955,-81.8138,1.89,5.7,1111122 
SCCF RECON,ioos:station:SCCF:18:1,2016-04-07T12:00:00Z,26.6955,-81.8138,1.87,5.76,1111122 
SCCF RECON,ioos:station:SCCF:18:1,2016-04-07T13:00:00Z,26.6955,-81.8138,1.899,5.51,1111122 
SCCF RECON,ioos:station:SCCF:18:1,2016-04-07T14:00:00Z,26.6955,-81.8138,1.919,5.55,1111122 
SCCF RECON,ioos:station:SCCF:18:1,2016-04-07T15:00:00Z,26.6955,-81.8138,1.93,5.55,1111122 
SCCF RECON,ioos:station:SCCF:18:1,2016-04-07T16:00:00Z,26.6955,-81.8138,1.92,5.31,1111122 
SCCF RECON,ioos:station:SCCF:18:1,2016-04-07T17:00:00Z,26.6955,-81.8138,1.917,5.66,1111122 
SCCF RECON,ioos:station:SCCF:18:1,2016-04-07T18:00:00Z,26.6955,-81.8138,1.962,6.01,1111122 
SCCF RECON,ioos:station:SCCF:18:1,2016-04-07T19:00:00Z,26.6955,-81.8138,1.967,5.69,1111122 
SCCF RECON,ioos:station:SCCF:18:1,2016-04-07T20:00:00Z,26.6955,-81.8138,1.99,6.35,1111122 
SCCF RECON,ioos:station:SCCF:18:1,2016-04-07T21:00:00Z,26.6955,-81.8138,2.01,6.03,1111122 
SCCF RECON,ioos:station:SCCF:18:1,2016-04-07T22:00:00Z,26.6955,-81.8138,2.02,6.18,1111122 
SCCF RECON,ioos:station:SCCF:18:1,2016-04-07T23:00:00Z,26.6955,-81.8138,2.03,5.91,1111122 
SCCF RECON,ioos:station:SCCF:18:1,2016-04-08T00:00:00Z,26.6955,-81.8138,2.04,6.16,1111122 
SCCF RECON,ioos:station:SCCF:18:1,2016-04-08T01:00:00Z,26.6955,-81.8138,2.06,6.19,1111122 
SCCF RECON,ioos:station:SCCF:18:1,2016-04-08T02:00:00Z,26.6955,-81.8138,2.05,6.17,1111122 
SCCF RECON,ioos:station:SCCF:18:1,2016-04-08T03:00:00Z,26.6955,-81.8138,2.036,6.17,1111122 
SCCF RECON,ioos:station:SCCF:18:1,2016-04-08T04:00:00Z,26.6955,-81.8138,2.01,6.11,1111122 
SCCF RECON,ioos:station:SCCF:18:1,2016-04-08T05:00:00Z,26.6955,-81.8138,1.99,5.92,1111122 
SCCF RECON,ioos:station:SCCF:18:1,2016-04-08T06:00:00Z,26.6955,-81.8138,1.99,5.63,1111122 
SCCF RECON,ioos:station:SCCF:18:1,2016-04-08T07:00:00Z,26.6955,-81.8138,1.99,5.72,1111122 
SCCF RECON,ioos:station:SCCF:18:1,2016-04-08T08:00:00Z,26.6955,-81.8138,1.98,5.53,1111122 
SCCF RECON,ioos:station:SCCF:18:1,2016-04-08T09:00:00Z,26.6955,-81.8138,1.99,5.57,1111122 
SCCF RECON,ioos:station:SCCF:18:1,2016-04-08T10:00:00Z,26.6955,-81.8138,2.0,5.58,1111122 
SCCF RECON,ioos:station:SCCF:18:1,2016-04-08T11:00:00Z,26.6955,-81.8138,2.0,5.62,1111122 
SCCF RECON,ioos:station:SCCF:18:1,2016-04-08T12:00:00Z,26.6955,-81.8138,2.0,5.63,1111122 
SCCF RECON,ioos:station:SCCF:18:1,2016-04-08T13:00:00Z,26.6955,-81.8138,2.0,5.59,1111122 
SCCF RECON,ioos:station:SCCF:18:1,2016-04-08T14:00:00Z,26.6955,-81.8138,2.01,5.6,1111122 
SCCF RECON,ioos:station:SCCF:18:1,2016-04-08T15:00:00Z,26.6955,-81.8138,2.01,5.49,1111122 
SCCF RECON,ioos:station:SCCF:18:1,2016-04-08T16:00:00Z,26.6955,-81.8138,1.987,5.32,1111122 
SCCF RECON,ioos:station:SCCF:18:1,2016-04-08T17:00:00Z,26.6955,-81.8138,1.97,5.56,1111122 
SCCF RECON,ioos:station:SCCF:18:1,2016-04-08T18:00:00Z,26.6955,-81.8138,2.01,5.63,1111122 
SCCF RECON,ioos:station:SCCF:18:1,2016-04-08T19:00:00Z,26.6955,-81.8138,2.05,5.86,1111122 
SCCF RECON,ioos:station:SCCF:18:1,2016-04-08T20:00:00Z,26.6955,-81.8138,2.06,6.18,1111122 
SCCF RECON,ioos:station:SCCF:18:1,2016-04-08T21:00:00Z,26.6955,-81.8138,2.089,6.26,1111122 
SCCF RECON,ioos:station:SCCF:18:1,2016-04-08T22:00:00Z,26.6955,-81.8138,2.1,6.17,1111122 
SCCF RECON,ioos:station:SCCF:18:1,2016-04-08T23:00:00Z,26.6955,-81.8138,2.1,6.17,1111122 
SCCF RECON,ioos:station:SCCF:18:1,2016-04-09T00:00:00Z,26.6955,-81.8138,2.09,6.09,1111122 
SCCF RECON,ioos:station:SCCF:18:1,2016-04-09T01:00:00Z,26.6955,-81.8138,2.09,6.2,1111122 
SCCF RECON,ioos:station:SCCF:18:1,2016-04-09T02:00:00Z,26.6955,-81.8138,2.08,6.15,1111122 
SCCF RECON,ioos:station:SCCF:18:1,2016-04-09T03:00:00Z,26.6955,-81.8138,2.08,6.05,1111122 
SCCF RECON,ioos:station:SCCF:18:1,2016-04-09T04:00:00Z,26.6955,-81.8138,2.07,6.06,1111122 
SCCF RECON,ioos:station:SCCF:18:1,2016-04-09T05:00:00Z,26.6955,-81.8138,2.059,6.0,1111122 
SCCF RECON,ioos:station:SCCF:18:1,2016-04-09T06:00:00Z,26.6955,-81.8138,2.04,5.97,1111122 
SCCF RECON,ioos:station:SCCF:18:1,2016-04-09T07:00:00Z,26.6955,-81.8138,2.001,5.73,1111122 
SCCF RECON,ioos:station:SCCF:18:1,2016-04-09T08:00:00Z,26.6955,-81.8138,2.0,5.51,1111122 
SCCF RECON,ioos:station:SCCF:18:1,2016-04-09T09:00:00Z,26.6955,-81.8138,1.962,5.55,1111122 
SCCF RECON,ioos:station:SCCF:18:1,2016-04-09T10:00:00Z,26.6955,-81.8138,1.971,5.57,1111122 
SCCF RECON,ioos:station:SCCF:18:1,2016-04-09T11:00:00Z,26.6955,-81.8138,1.978,5.58,1111122 
SCCF RECON,ioos:station:SCCF:18:1,2016-04-09T12:00:00Z,26.6955,-81.8138,1.97,5.64,1111122 
SCCF RECON,ioos:station:SCCF:18:1,2016-04-09T13:00:00Z,26.6955,-81.8138,1.96,5.84,1111122 
SCCF RECON,ioos:station:SCCF:18:1,2016-04-09T14:00:00Z,26.6955,-81.8138,1.98,5.84,1111122 
SCCF RECON,ioos:station:SCCF:18:1,2016-04-09T15:00:00Z,26.6955,-81.8138,1.961,5.9,1111122 
SCCF RECON,ioos:station:SCCF:18:1,2016-04-09T16:00:00Z,26.6955,-81.8138,1.96,5.95,1111122 
SCCF RECON,ioos:station:SCCF:18:1,2016-04-09T17:00:00Z,26.6955,-81.8138,1.95,6.12,1111122 
SCCF RECON,ioos:station:SCCF:18:1,2016-04-09T18:00:00Z,26.6955,-81.8138,1.94,6.17,1111122 
SCCF RECON,ioos:station:SCCF:18:1,2016-04-09T19:00:00Z,26.6955,-81.8138,1.94,6.29,1111122 
SCCF RECON,ioos:station:SCCF:18:1,2016-04-09T20:00:00Z,26.6955,-81.8138,1.96,6.6,1111122 
SCCF RECON,ioos:station:SCCF:18:1,2016-04-09T21:00:00Z,26.6955,-81.8138,1.97,6.65,1111122 
SCCF RECON,ioos:station:SCCF:18:1,2016-04-09T22:00:00Z,26.6955,-81.8138,1.98,6.98,1111122 
SCCF RECON,ioos:station:SCCF:18:1,2016-04-09T23:00:00Z,26.6955,-81.8138,1.982,6.88,1111122 
SCCF RECON,ioos:station:SCCF:18:1,2016-04-10T00:00:00Z,26.6955,-81.8138,1.98,6.68,1111122 
SCCF RECON,ioos:station:SCCF:18:1,2016-04-10T01:00:00Z,26.6955,-81.8138,1.97,6.66,1111122 
SCCF RECON,ioos:station:SCCF:18:1,2016-04-10T02:00:00Z,26.6955,-81.8138,1.96,6.8,1111122 
SCCF RECON,ioos:station:SCCF:18:1,2016-04-10T03:00:00Z,26.6955,-81.8138,1.94,6.8,1111122 
SCCF RECON,ioos:station:SCCF:18:1,2016-04-10T04:00:00Z,26.6955,-81.8138,1.917,6.76,1111122 
SCCF RECON,ioos:station:SCCF:18:1,2016-04-10T05:00:00Z,26.6955,-81.8138,1.9,6.48,1111122 
SCCF RECON,ioos:station:SCCF:18:1,2016-04-10T06:00:00Z,26.6955,-81.8138,1.88,6.43,1111122 
SCCF RECON,ioos:station:SCCF:18:1,2016-04-10T07:00:00Z,26.6955,-81.8138,1.86,6.4,1111122 
SCCF RECON,ioos:station:SCCF:18:1,2016-04-10T08:00:00Z,26.6955,-81.8138,1.84,6.18,1111122 
SCCF RECON,ioos:station:SCCF:18:1,2016-04-10T09:00:00Z,26.6955,-81.8138,1.83,6.3,1111122 
SCCF RECON,ioos:station:SCCF:18:1,2016-04-10T10:00:00Z,26.6955,-81.8138,1.8,6.27,1111122 
SCCF RECON,ioos:station:SCCF:18:1,2016-04-10T11:00:00Z,26.6955,-81.8138,1.8,6.24,1111122 
SCCF RECON,ioos:station:SCCF:18:1,2016-04-10T12:00:00Z,26.6955,-81.8138,1.803,6.22,1111122 
SCCF RECON,ioos:station:SCCF:18:1,2016-04-10T13:00:00Z,26.6955,-81.8138,1.81,6.16,1111122 
SCCF RECON,ioos:station:SCCF:18:1,2016-04-10T14:00:00Z,26.6955,-81.8138,1.792,6.26,1111122 
SCCF RECON,ioos:station:SCCF:18:1,2016-04-10T15:00:00Z,26.6955,-81.8138,1.81,6.3,1111122 
SCCF RECON,ioos:station:SCCF:18:1,2016-04-10T16:00:00Z,26.6955,-81.8138,1.82,6.31,1111122 
SCCF RECON,ioos:station:SCCF:18:1,2016-04-10T17:00:00Z,26.6955,-81.8138,1.82,6.63,1111122 
SCCF RECON,ioos:station:SCCF:18:1,2016-04-10T18:00:00Z,26.6955,-81.8138,1.825,6.72,1111122 
SCCF RECON,ioos:station:SCCF:18:1,2016-04-10T19:00:00Z,26.6955,-81.8138,1.83,6.65,1111122 
SCCF RECON,ioos:station:SCCF:18:1,2016-04-10T20:00:00Z,26.6955,-81.8138,1.854,7.42,1111122 
SCCF RECON,ioos:station:SCCF:18:1,2016-04-10T21:00:00Z,26.6955,-81.8138,1.86,7.41,1111122 
SCCF RECON,ioos:station:SCCF:18:1,2016-04-10T22:00:00Z,26.6955,-81.8138,1.89,7.3,1111122 
SCCF RECON,ioos:station:SCCF:18:1,2016-04-10T23:00:00Z,26.6955,-81.8138,1.9,7.23,1111122 
SCCF RECON,ioos:station:SCCF:18:1,2016-04-11T00:00:00Z,26.6955,-81.8138,1.9,6.99,1111122 
SCCF RECON,ioos:station:SCCF:18:1,2016-04-11T01:00:00Z,26.6955,-81.8138,1.9,6.93,1111122 
SCCF RECON,ioos:station:SCCF:18:1,2016-04-11T02:00:00Z,26.6955,-81.8138,1.9,6.89,1111122 
SCCF RECON,ioos:station:SCCF:18:1,2016-04-11T03:00:00Z,26.6955,-81.8138,1.91,6.8,1111122 
SCCF RECON,ioos:station:SCCF:18:1,2016-04-11T04:00:00Z,26.6955,-81.8138,1.9,6.7,1111122 
SCCF RECON,ioos:station:SCCF:18:1,2016-04-11T05:00:00Z,26.6955,-81.8138,1.88,6.64,1111122 
SCCF RECON,ioos:station:SCCF:18:1,2016-04-11T06:00:00Z,26.6955,-81.8138,1.87,6.62,1111122 
SCCF RECON,ioos:station:SCCF:18:1,2016-04-11T07:00:00Z,26.6955,-81.8138,1.84,6.54,1111122 
SCCF RECON,ioos:station:SCCF:18:1,2016-04-11T08:00:00Z,26.6955,-81.8138,1.83,6.44,1111122 
SCCF RECON,ioos:station:SCCF:18:1,2016-04-11T09:00:00Z,26.6955,-81.8138,1.83,6.32,1111122 
SCCF RECON,ioos:station:SCCF:18:1,2016-04-11T10:00:00Z,26.6955,-81.8138,1.81,6.34,1111122 
SCCF RECON,ioos:station:SCCF:18:1,2016-04-11T11:00:00Z,26.6955,-81.8138,1.8,6.35,1111122 
SCCF RECON,ioos:station:SCCF:18:1,2016-04-11T12:00:00Z,26.6955,-81.8138,1.81,6.34,1111122 
SCCF RECON,ioos:station:SCCF:18:1,2016-04-11T13:00:00Z,26.6955,-81.8138,1.81,6.31,1111122 
SCCF RECON,ioos:station:SCCF:18:1,2016-04-11T14:00:00Z,26.6955,-81.8138,1.81,6.4,1111122 
SCCF RECON,ioos:station:SCCF:18:1,2016-04-11T15:00:00Z,26.6955,-81.8138,1.81,6.47,1111122 
SCCF RECON,ioos:station:SCCF:18:1,2016-04-11T16:00:00Z,26.6955,-81.8138,1.849,6.56,1111122 
SCCF RECON,ioos:station:SCCF:18:1,2016-04-11T17:00:00Z,26.6955,-81.8138,1.88,6.6,1111122 
SCCF RECON,ioos:station:SCCF:18:1,2016-04-11T18:00:00Z,26.6955,-81.8138,1.89,6.68,1111122 
SCCF RECON,ioos:station:SCCF:18:1,2016-04-11T19:00:00Z,26.6955,-81.8138,1.9,6.84,1111122 
SCCF RECON,ioos:station:SCCF:18:1,2016-04-11T20:00:00Z,26.6955,-81.8138,1.909,6.97,1111122 
SCCF RECON,ioos:station:SCCF:18:1,2016-04-11T21:00:00Z,26.6955,-81.8138,1.94,7.33,1111122 